DAL2167 KPDX-KMSP

Flight info

Callsign DAL2167
Flight time 2h 58m
Altitude 33000
Route LAVAA7 PDT HIA BIL/N0452F350 DPR UFFDA TORGY4
Aircraft A321/M-SDE3FGHIRWY/LB1

Departure

Time 2026-05-06 02:53
Airport Portland International Airport (KPDX)

Arrival

Time 2026-05-06 05:51
Airport Minneapolis–Saint Paul International Airport / Wold–Chamberlain Field (KMSP)
Time Latitude Longitude Altitude Speed Heading
2026-05-06 02:29 45.59144 -122.59467 35 ft 0 kts 229°
2026-05-06 02:44 45.59154 -122.59451 36 ft 3 kts 227°
2026-05-06 02:44 45.59169 -122.59434 33 ft 3 kts 206°
2026-05-06 02:45 45.59186 -122.59422 35 ft 3 kts 199°
2026-05-06 02:45 45.59205 -122.59417 35 ft 3 kts 169°
2026-05-06 02:45 45.59221 -122.59425 34 ft 1 kts 149°
2026-05-06 02:47 45.59216 -122.59419 35 ft 4 kts 135°
2026-05-06 02:48 45.59208 -122.59337 37 ft 13 kts 88°
2026-05-06 02:48 45.59210 -122.59217 41 ft 10 kts 92°
2026-05-06 02:48 45.59186 -122.59127 43 ft 13 kts 120°
2026-05-06 02:48 45.59125 -122.58972 42 ft 23 kts 119°
2026-05-06 02:49 45.59047 -122.58773 39 ft 23 kts 119°
2026-05-06 02:49 45.58969 -122.58572 39 ft 23 kts 118°
2026-05-06 02:49 45.58893 -122.58376 36 ft 24 kts 119°
2026-05-06 02:49 45.58816 -122.58180 43 ft 21 kts 119°
2026-05-06 02:50 45.58739 -122.57982 41 ft 26 kts 119°
2026-05-06 02:50 45.58653 -122.57762 42 ft 26 kts 120°
2026-05-06 02:50 45.58566 -122.57539 40 ft 25 kts 119°
2026-05-06 02:50 45.58479 -122.57317 37 ft 25 kts 119°
2026-05-06 02:51 45.58398 -122.57109 38 ft 23 kts 119°
2026-05-06 02:51 45.58327 -122.56926 41 ft 18 kts 119°
2026-05-06 02:51 45.58276 -122.56791 41 ft 15 kts 111°
2026-05-06 02:51 45.58323 -122.56695 39 ft 14 kts
2026-05-06 02:52 45.58388 -122.56767 39 ft 14 kts 300°
2026-05-06 02:52 45.58497 -122.57045 37 ft 65 kts 299°
2026-05-06 02:52 45.58824 -122.57882 42 ft 126 kts 299°
2026-05-06 02:52 45.59331 -122.59179 44 ft 171 kts 299°
2026-05-06 02:53 45.59901 -122.60687 641 ft 170 kts 297°
2026-05-06 02:53 45.60441 -122.62192 1324 ft 170 kts 297°
2026-05-06 02:53 45.60971 -122.63687 1914 ft 169 kts 297°
2026-05-06 02:53 45.61446 -122.65309 2102 ft 187 kts 284°
2026-05-06 02:54 45.61786 -122.67195 2212 ft 205 kts 293°
2026-05-06 02:54 45.62490 -122.69070 2355 ft 227 kts 301°
2026-05-06 02:54 45.63323 -122.71126 2577 ft 249 kts 301°
2026-05-06 02:54 45.64192 -122.73268 3125 ft 256 kts 301°
2026-05-06 02:55 45.65097 -122.75500 3801 ft 260 kts 301°
2026-05-06 02:55 45.66024 -122.77738 4462 ft 264 kts 306°
2026-05-06 02:55 45.67395 -122.79441 5044 ft 266 kts 339°
2026-05-06 02:55 45.69216 -122.79724 5629 ft 269 kts 13°
2026-05-06 02:56 45.70944 -122.78693 6255 ft 272 kts 27°
2026-05-06 02:56 45.72616 -122.77371 6869 ft 276 kts 29°
2026-05-06 02:56 45.74154 -122.75719 7473 ft 280 kts 47°
2026-05-06 02:56 45.75238 -122.73396 8074 ft 284 kts 66°
2026-05-06 02:57 45.75758 -122.70658 8684 ft 288 kts 84°
2026-05-06 02:57 45.75771 -122.67773 9315 ft 291 kts 90°
2026-05-06 02:57 45.75738 -122.64866 9958 ft 293 kts 90°
2026-05-06 02:57 45.75705 -122.61931 10514 ft 296 kts 90°
2026-05-06 02:58 45.75676 -122.58921 10767 ft 312 kts 89°
2026-05-06 02:58 45.75648 -122.55718 10897 ft 331 kts 89°
2026-05-06 02:58 45.75614 -122.52329 11026 ft 349 kts 90°
2026-05-06 02:58 45.75574 -122.48809 11401 ft 357 kts 90°
2026-05-06 02:59 45.75528 -122.45232 11909 ft 361 kts 89°
2026-05-06 02:59 45.75482 -122.41629 12455 ft 364 kts 89°
2026-05-06 02:59 45.75435 -122.37979 13009 ft 367 kts 89°
2026-05-06 02:59 45.75387 -122.34313 13541 ft 371 kts 89°
2026-05-06 03:00 45.75339 -122.30606 14057 ft 374 kts 88°
2026-05-06 03:00 45.75294 -122.26867 14562 ft 376 kts 88°
2026-05-06 03:00 45.75249 -122.23105 15076 ft 379 kts 88°
2026-05-06 03:00 45.75199 -122.19370 15580 ft 381 kts 88°
2026-05-06 03:01 45.75144 -122.15567 16075 ft 383 kts 88°
2026-05-06 03:01 45.75087 -122.11742 16554 ft 385 kts 88°
2026-05-06 03:01 45.75031 -122.07900 17025 ft 387 kts 88°
2026-05-06 03:01 45.74972 -122.04028 17485 ft 390 kts 88°
2026-05-06 03:02 45.74912 -122.00137 17974 ft 392 kts 88°
2026-05-06 03:02 45.74850 -121.96222 18437 ft 394 kts 88°
2026-05-06 03:02 45.74786 -121.92290 18827 ft 396 kts 88°
2026-05-06 03:02 45.74721 -121.88333 19209 ft 398 kts 88°
2026-05-06 03:03 45.74656 -121.84365 19607 ft 400 kts 88°
2026-05-06 03:03 45.74616 -121.80366 19996 ft 402 kts 87°
2026-05-06 03:03 45.74599 -121.76357 20384 ft 404 kts 86°
2026-05-06 03:03 45.74590 -121.72325 20760 ft 406 kts 86°
2026-05-06 03:04 45.74580 -121.68269 21136 ft 409 kts 86°
2026-05-06 03:04 45.74568 -121.64191 21517 ft 411 kts 86°
2026-05-06 03:04 45.74548 -121.60089 21896 ft 413 kts 86°
2026-05-06 03:04 45.74523 -121.55965 22240 ft 415 kts 86°
2026-05-06 03:05 45.74495 -121.51813 22597 ft 418 kts 86°
2026-05-06 03:05 45.74464 -121.47648 22913 ft 420 kts 86°
2026-05-06 03:05 45.74432 -121.43460 23267 ft 422 kts 86°
2026-05-06 03:05 45.74399 -121.39243 23593 ft 424 kts 86°
2026-05-06 03:06 45.74366 -121.35013 23872 ft 426 kts 86°
2026-05-06 03:06 45.74330 -121.30759 24166 ft 428 kts 86°
2026-05-06 03:06 45.74291 -121.26496 24453 ft 430 kts 86°
2026-05-06 03:06 45.74251 -121.22196 24732 ft 432 kts 86°
2026-05-06 03:07 45.74213 -121.17932 25012 ft 435 kts 86°
2026-05-06 03:07 45.74171 -121.13602 25311 ft 436 kts 86°
2026-05-06 03:07 45.74127 -121.09258 25592 ft 437 kts 86°
2026-05-06 03:07 45.74079 -121.04897 25885 ft 439 kts 86°
2026-05-06 03:08 45.74031 -121.00515 26158 ft 441 kts 86°
2026-05-06 03:08 45.73983 -120.96116 26428 ft 443 kts 86°
2026-05-06 03:08 45.73933 -120.91699 26694 ft 445 kts 86°
2026-05-06 03:08 45.73879 -120.87281 26957 ft 446 kts 86°
2026-05-06 03:09 45.73841 -120.84318 27141 ft 447 kts 86°
2026-05-06 03:09 45.73765 -120.78353 27482 ft 450 kts 86°
2026-05-06 03:09 45.73725 -120.75381 27606 ft 451 kts 86°
2026-05-06 03:09 45.73664 -120.70886 27774 ft 452 kts 86°
2026-05-06 03:10 45.73601 -120.66389 27968 ft 454 kts 86°
2026-05-06 03:10 45.73537 -120.61854 28222 ft 455 kts 86°
2026-05-06 03:10 45.73472 -120.57311 28476 ft 457 kts 86°
2026-05-06 03:10 45.73405 -120.52749 28707 ft 459 kts 86°
2026-05-06 03:11 45.73335 -120.48176 28938 ft 460 kts 86°
2026-05-06 03:11 45.73260 -120.43590 29165 ft 462 kts 86°
2026-05-06 03:11 45.73182 -120.38979 29389 ft 464 kts 86°
2026-05-06 03:11 45.73100 -120.34360 29701 ft 464 kts 86°
2026-05-06 03:12 45.73017 -120.29750 30003 ft 463 kts 86°
2026-05-06 03:12 45.72933 -120.25139 30254 ft 463 kts 86°
2026-05-06 03:12 45.72852 -120.20536 30516 ft 462 kts 86°
2026-05-06 03:12 45.72771 -120.15942 30798 ft 461 kts 86°
2026-05-06 03:13 45.72686 -120.11352 31079 ft 461 kts 86°
2026-05-06 03:13 45.72600 -120.06777 31352 ft 460 kts 86°
2026-05-06 03:13 45.72512 -120.02222 31637 ft 459 kts 86°
2026-05-06 03:13 45.72417 -119.97637 31928 ft 458 kts 86°
2026-05-06 03:14 45.72321 -119.93079 32206 ft 458 kts 86°
2026-05-06 03:14 45.72227 -119.88526 32487 ft 457 kts 86°
2026-05-06 03:14 45.72133 -119.83989 32761 ft 456 kts 86°
2026-05-06 03:14 45.72037 -119.79455 32867 ft 453 kts 86°
2026-05-06 03:15 45.71937 -119.74969 32888 ft 449 kts 86°
2026-05-06 03:15 45.71730 -119.66063 32890 ft 447 kts 86°
2026-05-06 03:16 45.71522 -119.57222 32893 ft 447 kts 86°
2026-05-06 03:16 45.71310 -119.48332 32898 ft 447 kts 85°
2026-05-06 03:17 45.71093 -119.39462 32903 ft 446 kts 85°
2026-05-06 03:17 45.70866 -119.30588 32907 ft 446 kts 85°
2026-05-06 03:18 45.70633 -119.21719 32911 ft 446 kts 85°
2026-05-06 03:18 45.70388 -119.12859 32915 ft 446 kts 85°
2026-05-06 03:19 45.70129 -119.03998 32958 ft 445 kts 85°
2026-05-06 03:19 45.69874 -118.95154 32964 ft 444 kts 84°
2026-05-06 03:20 45.70477 -118.82090 32963 ft 438 kts 78°
2026-05-06 03:20 45.70932 -118.73404 32960 ft 438 kts 79°
2026-05-06 03:21 45.71381 -118.64719 32959 ft 438 kts 79°
2026-05-06 03:21 45.71823 -118.56035 32962 ft 437 kts 79°
2026-05-06 03:22 45.72259 -118.47347 32982 ft 437 kts 79°
2026-05-06 03:22 45.72687 -118.38683 32990 ft 436 kts 78°
2026-05-06 03:23 45.73105 -118.30014 32984 ft 435 kts 78°
2026-05-06 03:23 45.73520 -118.21371 32981 ft 436 kts 78°
2026-05-06 03:24 45.73929 -118.12713 32976 ft 435 kts 78°
2026-05-06 03:24 45.74319 -118.04116 32975 ft 435 kts 78°
2026-05-06 03:25 45.74712 -117.95479 32976 ft 435 kts 78°
2026-05-06 03:25 45.75105 -117.86833 32979 ft 435 kts 78°
2026-05-06 03:26 45.75484 -117.78185 32972 ft 435 kts 79°
2026-05-06 03:26 45.75855 -117.69532 32967 ft 435 kts 78°
2026-05-06 03:27 45.76215 -117.60874 32976 ft 435 kts 78°
2026-05-06 03:27 45.76579 -117.52230 32980 ft 435 kts 78°
2026-05-06 03:28 45.76937 -117.43588 32979 ft 434 kts 78°
2026-05-06 03:28 45.77284 -117.35000 32981 ft 434 kts 78°
2026-05-06 03:29 45.77629 -117.26365 32981 ft 434 kts 78°
2026-05-06 03:29 45.77958 -117.17738 32973 ft 434 kts 78°
2026-05-06 03:30 45.78282 -117.09108 32972 ft 433 kts 78°
2026-05-06 03:30 45.78605 -117.00493 32970 ft 433 kts 78°
2026-05-06 03:31 45.78926 -116.91888 32962 ft 433 kts 78°
2026-05-06 03:31 45.79235 -116.83282 32962 ft 433 kts 78°
2026-05-06 03:32 45.79528 -116.74661 32958 ft 433 kts 78°
2026-05-06 03:32 45.79822 -116.66055 32954 ft 433 kts 78°
2026-05-06 03:33 45.80115 -116.57457 32948 ft 432 kts 78°
2026-05-06 03:33 45.80400 -116.48852 32960 ft 433 kts 77°
2026-05-06 03:34 45.80673 -116.40226 32970 ft 434 kts 77°
2026-05-06 03:34 45.80941 -116.31585 32979 ft 434 kts 77°
2026-05-06 03:35 45.81195 -116.22941 32990 ft 434 kts 78°
2026-05-06 03:35 45.81447 -116.14302 32994 ft 433 kts 77°
2026-05-06 03:36 45.81694 -116.05724 33000 ft 433 kts 77°
2026-05-06 03:36 45.81941 -115.97083 32996 ft 433 kts 77°
2026-05-06 03:37 45.82182 -115.88452 32991 ft 433 kts 77°
2026-05-06 03:37 45.82409 -115.79842 32967 ft 432 kts 77°
2026-05-06 03:38 45.82628 -115.71223 32956 ft 433 kts 77°
2026-05-06 03:38 45.82841 -115.62602 32950 ft 432 kts 77°
2026-05-06 03:39 45.83051 -115.53990 32949 ft 432 kts 77°
2026-05-06 03:39 45.83258 -115.45385 32958 ft 432 kts 77°
2026-05-06 03:40 45.83460 -115.36789 32955 ft 431 kts 77°
2026-05-06 03:40 45.83645 -115.28202 32962 ft 431 kts 77°
2026-05-06 03:41 45.83823 -115.19628 32967 ft 430 kts 77°
2026-05-06 03:41 45.84008 -115.11053 32966 ft 430 kts 77°
2026-05-06 03:42 45.84173 -115.02492 32968 ft 430 kts 77°
2026-05-06 03:42 45.84331 -114.93954 32982 ft 431 kts 77°
2026-05-06 03:43 45.84492 -114.85383 32984 ft 430 kts 78°
2026-05-06 03:43 45.84645 -114.76819 32991 ft 429 kts 78°
2026-05-06 03:44 45.84787 -114.68256 32997 ft 430 kts 77°
2026-05-06 03:44 45.84929 -114.59693 32999 ft 430 kts 78°
2026-05-06 03:45 45.85061 -114.51123 32994 ft 430 kts 78°
2026-05-06 03:45 45.85181 -114.42557 32992 ft 430 kts 78°
2026-05-06 03:46 45.85301 -114.33976 32999 ft 430 kts 78°
2026-05-06 03:46 45.85418 -114.25379 33015 ft 431 kts 78°
2026-05-06 03:47 45.85522 -114.16786 33024 ft 431 kts 78°
2026-05-06 03:47 45.85622 -114.08185 33037 ft 431 kts 78°
2026-05-06 03:48 45.85718 -113.99630 33035 ft 431 kts 78°
2026-05-06 03:48 45.85802 -113.91021 33063 ft 432 kts 78°
2026-05-06 03:49 45.85886 -113.82390 33086 ft 433 kts 78°
2026-05-06 03:49 45.85958 -113.73762 33109 ft 433 kts 78°
2026-05-06 03:50 45.86030 -113.65126 33129 ft 432 kts 77°
2026-05-06 03:50 45.86092 -113.56504 33144 ft 432 kts 77°
2026-05-06 03:51 45.86147 -113.47891 33167 ft 432 kts 77°
2026-05-06 03:51 45.86193 -113.39281 33183 ft 431 kts 77°
2026-05-06 03:52 45.86230 -113.30670 33198 ft 431 kts 77°
2026-05-06 03:52 45.86266 -113.22073 33208 ft 431 kts 77°
2026-05-06 03:53 45.86297 -113.13486 33224 ft 430 kts 77°
2026-05-06 03:53 45.86313 -113.06353 33225 ft 430 kts 77°
2026-05-06 03:54 45.86335 -112.96330 33235 ft 430 kts 77°
2026-05-06 03:54 45.86346 -112.89210 33230 ft 429 kts 77°
2026-05-06 03:55 45.86360 -112.80636 33231 ft 430 kts 77°
2026-05-06 03:55 45.86353 -112.72073 33221 ft 429 kts 77°
2026-05-06 03:56 45.86337 -112.63514 33217 ft 429 kts 77°
2026-05-06 03:56 45.86323 -112.54960 33209 ft 428 kts 77°
2026-05-06 03:57 45.86297 -112.46429 33222 ft 428 kts 77°
2026-05-06 03:57 45.86270 -112.37890 33222 ft 427 kts 77°
2026-05-06 03:58 45.86239 -112.29430 33218 ft 426 kts 77°
2026-05-06 03:58 45.86195 -112.20926 33227 ft 426 kts 77°
2026-05-06 03:59 45.86158 -112.12418 33234 ft 425 kts 77°
2026-05-06 03:59 45.86159 -112.03941 33235 ft 425 kts 76°
2026-05-06 04:00 45.86170 -111.95472 33240 ft 425 kts 76°
2026-05-06 04:00 45.86168 -111.86999 33232 ft 425 kts 77°
2026-05-06 04:01 45.86149 -111.78514 33193 ft 425 kts 77°
2026-05-06 04:01 45.86112 -111.70031 33206 ft 425 kts 77°
2026-05-06 04:02 45.86074 -111.61543 33195 ft 426 kts 77°
2026-05-06 04:02 45.86035 -111.53042 33193 ft 426 kts 77°
2026-05-06 04:03 45.85985 -111.44518 33198 ft 427 kts 78°
2026-05-06 04:03 45.85930 -111.35990 33208 ft 428 kts 78°
2026-05-06 04:04 45.85874 -111.27455 33205 ft 428 kts 78°
2026-05-06 04:04 45.85816 -111.18918 33205 ft 428 kts 78°
2026-05-06 04:05 45.85742 -111.10361 33202 ft 429 kts 78°
2026-05-06 04:05 45.85660 -111.01844 33200 ft 430 kts 78°
2026-05-06 04:06 45.85575 -110.93271 33198 ft 430 kts 79°
2026-05-06 04:06 45.85487 -110.84681 33202 ft 431 kts 79°
2026-05-06 04:07 45.85391 -110.76076 33203 ft 432 kts 79°
2026-05-06 04:07 45.85280 -110.67451 33197 ft 432 kts 79°
2026-05-06 04:08 45.85163 -110.58823 33194 ft 433 kts 79°
2026-05-06 04:08 45.85044 -110.50184 33190 ft 434 kts 79°
2026-05-06 04:09 45.84923 -110.41530 33191 ft 434 kts 80°
2026-05-06 04:09 45.84793 -110.32851 33192 ft 435 kts 80°
2026-05-06 04:10 45.84650 -110.24165 33190 ft 436 kts 81°
2026-05-06 04:10 45.84508 -110.15457 33189 ft 437 kts 81°
2026-05-06 04:11 45.84355 -110.06725 33184 ft 438 kts 81°
2026-05-06 04:11 45.84189 -109.97979 33171 ft 439 kts 81°
2026-05-06 04:12 45.84025 -109.89273 33170 ft 440 kts 82°
2026-05-06 04:12 45.83856 -109.80494 33169 ft 441 kts 82°
2026-05-06 04:13 45.83676 -109.71692 33163 ft 442 kts 82°
2026-05-06 04:13 45.83483 -109.62881 33165 ft 443 kts 83°
2026-05-06 04:14 45.83287 -109.54041 33156 ft 444 kts 83°
2026-05-06 04:14 45.83081 -109.45181 33156 ft 445 kts 83°
2026-05-06 04:15 45.82874 -109.36293 33159 ft 446 kts 83°
2026-05-06 04:15 45.82663 -109.27394 33159 ft 447 kts 84°
2026-05-06 04:16 45.82441 -109.18461 33166 ft 449 kts 84°
2026-05-06 04:16 45.82198 -109.09486 33165 ft 451 kts 85°
2026-05-06 04:17 45.81952 -109.00492 33170 ft 452 kts 85°
2026-05-06 04:17 45.81701 -108.91479 33167 ft 453 kts 85°
2026-05-06 04:18 45.81452 -108.82447 33165 ft 454 kts 85°
2026-05-06 04:18 45.81191 -108.73406 33157 ft 455 kts 86°
2026-05-06 04:19 45.80918 -108.64341 33153 ft 456 kts 86°
2026-05-06 04:19 45.80440 -108.55255 33155 ft 459 kts 90°
2026-05-06 04:20 45.79710 -108.46098 33328 ft 466 kts 91°
2026-05-06 04:20 45.79321 -108.41531 33494 ft 469 kts 91°
2026-05-06 04:20 45.78933 -108.36890 33711 ft 470 kts 91°
2026-05-06 04:21 45.78558 -108.32241 33941 ft 470 kts 91°
2026-05-06 04:21 45.78197 -108.27582 34170 ft 471 kts 91°
2026-05-06 04:21 45.77842 -108.22925 34400 ft 471 kts 91°
2026-05-06 04:21 45.77487 -108.18261 34599 ft 471 kts 91°
2026-05-06 04:22 45.77127 -108.13599 34787 ft 471 kts 91°
2026-05-06 04:22 45.76761 -108.08929 34982 ft 472 kts 91°
2026-05-06 04:22 45.76390 -108.04261 35154 ft 473 kts 91°
2026-05-06 04:23 45.75634 -107.94906 35205 ft 473 kts 92°
2026-05-06 04:23 45.74871 -107.85550 35205 ft 473 kts 92°
2026-05-06 04:24 45.74105 -107.76184 35202 ft 474 kts 92°
2026-05-06 04:24 45.73338 -107.66792 35200 ft 475 kts 92°
2026-05-06 04:25 45.72555 -107.57389 35206 ft 476 kts 92°
2026-05-06 04:25 45.71760 -107.47995 35208 ft 476 kts 93°
2026-05-06 04:26 45.70959 -107.38576 35202 ft 477 kts 93°
2026-05-06 04:26 45.70149 -107.29147 35204 ft 478 kts 93°
2026-05-06 04:27 45.69326 -107.19694 35205 ft 479 kts 94°
2026-05-06 04:27 45.68495 -107.10234 35205 ft 479 kts 94°
2026-05-06 04:28 45.67657 -107.00771 35204 ft 481 kts 94°
2026-05-06 04:28 45.66814 -106.91340 35203 ft 481 kts 94°
2026-05-06 04:29 45.65955 -106.81842 35200 ft 482 kts 94°
2026-05-06 04:29 45.65094 -106.72330 35204 ft 483 kts 94°
2026-05-06 04:30 45.64215 -106.62791 35200 ft 484 kts 95°
2026-05-06 04:30 45.63325 -106.53249 35207 ft 485 kts 95°
2026-05-06 04:31 45.62434 -106.43694 35203 ft 486 kts 95°
2026-05-06 04:31 45.61529 -106.34121 35210 ft 487 kts 95°
2026-05-06 04:32 45.60614 -106.24529 35203 ft 488 kts 95°
2026-05-06 04:32 45.59693 -106.14920 35207 ft 489 kts 95°
2026-05-06 04:33 45.58757 -106.05296 35207 ft 490 kts 96°
2026-05-06 04:33 45.57810 -105.95667 35211 ft 491 kts 96°
2026-05-06 04:34 45.56859 -105.86011 35204 ft 492 kts 96°
2026-05-06 04:34 45.55901 -105.76345 35341 ft 490 kts 94°
2026-05-06 04:34 45.55419 -105.71588 35198 ft 477 kts 95°
2026-05-06 04:35 45.54945 -105.66963 35225 ft 466 kts 95°
2026-05-06 04:35 45.54019 -105.57904 35226 ft 464 kts 95°
2026-05-06 04:36 45.53092 -105.48783 35221 ft 464 kts 95°
2026-05-06 04:36 45.52154 -105.39670 35221 ft 465 kts 95°
2026-05-06 04:37 45.51209 -105.30546 35218 ft 465 kts 95°
2026-05-06 04:37 45.50250 -105.21420 35217 ft 466 kts 95°
2026-05-06 04:38 45.49284 -105.12287 35215 ft 466 kts 95°
2026-05-06 04:38 45.48316 -105.03145 35216 ft 466 kts 95°
2026-05-06 04:39 45.47500 -104.95551 35216 ft 467 kts 96°
2026-05-06 04:39 45.46511 -104.86409 35209 ft 467 kts 96°
2026-05-06 04:40 45.45513 -104.77265 35208 ft 467 kts 96°
2026-05-06 04:40 45.44511 -104.68115 35194 ft 468 kts 96°
2026-05-06 04:41 45.43504 -104.58958 35197 ft 468 kts 96°
2026-05-06 04:41 45.42484 -104.49802 35202 ft 469 kts 96°
2026-05-06 04:42 45.41458 -104.40683 35190 ft 469 kts 96°
2026-05-06 04:42 45.40423 -104.31512 35188 ft 470 kts 97°
2026-05-06 04:43 45.39379 -104.22328 35200 ft 470 kts 97°
2026-05-06 04:43 45.38330 -104.13143 35188 ft 471 kts 97°
2026-05-06 04:44 45.37271 -104.03938 35185 ft 471 kts 97°
2026-05-06 04:44 45.36193 -103.94735 35190 ft 472 kts 97°
2026-05-06 04:45 45.35103 -103.85539 35184 ft 472 kts 97°
2026-05-06 04:45 45.34010 -103.76323 35179 ft 473 kts 97°
2026-05-06 04:46 45.32923 -103.67101 35178 ft 473 kts 97°
2026-05-06 04:46 45.31832 -103.57866 35175 ft 474 kts 98°
2026-05-06 04:47 45.30721 -103.48634 35167 ft 474 kts 98°
2026-05-06 04:47 45.29598 -103.39462 35167 ft 475 kts 98°
2026-05-06 04:48 45.28464 -103.30222 35168 ft 475 kts 98°
2026-05-06 04:48 45.27325 -103.20965 35167 ft 476 kts 98°
2026-05-06 04:49 45.26180 -103.11708 35167 ft 476 kts 98°
2026-05-06 04:49 45.25024 -103.02452 35169 ft 477 kts 98°
2026-05-06 04:50 45.23860 -102.93187 35166 ft 477 kts 98°
2026-05-06 04:50 45.22683 -102.83924 35168 ft 478 kts 99°
2026-05-06 04:51 45.21497 -102.74648 35166 ft 478 kts 99°
2026-05-06 04:51 45.20311 -102.65364 35165 ft 479 kts 99°
2026-05-06 04:52 45.19121 -102.56080 35166 ft 479 kts 99°
2026-05-06 04:52 45.17911 -102.46787 35167 ft 480 kts 99°
2026-05-06 04:53 45.16689 -102.37487 35165 ft 480 kts 99°
2026-05-06 04:53 45.15459 -102.28180 35168 ft 481 kts 99°
2026-05-06 04:54 45.14230 -102.18936 35168 ft 481 kts 100°
2026-05-06 04:54 45.12983 -102.09623 35167 ft 481 kts 100°
2026-05-06 04:55 45.11735 -102.00311 35164 ft 482 kts 100°
2026-05-06 04:55 45.10481 -101.90974 35163 ft 482 kts 100°
2026-05-06 04:56 45.09211 -101.81650 35161 ft 483 kts 100°
2026-05-06 04:56 45.07918 -101.72329 35155 ft 483 kts 101°
2026-05-06 04:57 45.06883 -101.62934 35153 ft 483 kts 95°
2026-05-06 04:57 45.06274 -101.53466 35150 ft 483 kts 94°
2026-05-06 04:58 45.05667 -101.43998 35151 ft 484 kts 95°
2026-05-06 04:58 45.04925 -101.34529 35141 ft 484 kts 96°
2026-05-06 04:59 45.04119 -101.25076 35138 ft 485 kts 96°
2026-05-06 04:59 45.03313 -101.15665 35132 ft 485 kts 96°
2026-05-06 05:00 45.02522 -101.06182 35130 ft 486 kts 96°
2026-05-06 05:00 45.01732 -100.96684 35120 ft 486 kts 96°
2026-05-06 05:01 45.00926 -100.87193 35117 ft 487 kts 97°
2026-05-06 05:01 45.00110 -100.77690 35111 ft 487 kts 97°
2026-05-06 05:02 44.99282 -100.68174 35113 ft 488 kts 97°
2026-05-06 05:02 44.98446 -100.58658 35103 ft 488 kts 97°
2026-05-06 05:03 44.97606 -100.49135 35098 ft 489 kts 97°
2026-05-06 05:03 44.96754 -100.39602 35098 ft 489 kts 97°
2026-05-06 05:04 44.95891 -100.30070 35097 ft 490 kts 97°
2026-05-06 05:04 44.95019 -100.20520 35105 ft 490 kts 97°
2026-05-06 05:05 44.94137 -100.10962 35103 ft 491 kts 98°
2026-05-06 05:05 44.93248 -100.01402 35110 ft 491 kts 98°
2026-05-06 05:06 44.92355 -99.91835 35108 ft 492 kts 98°
2026-05-06 05:06 44.91451 -99.82263 35111 ft 492 kts 98°
2026-05-06 05:07 44.90532 -99.72689 35114 ft 493 kts 98°
2026-05-06 05:07 44.89915 -99.66288 35113 ft 493 kts 98°
2026-05-06 05:08 44.89333 -99.60236 35114 ft 493 kts 98°
2026-05-06 05:08 44.88404 -99.50657 35116 ft 493 kts 98°
2026-05-06 05:09 44.87461 -99.41070 35115 ft 494 kts 98°
2026-05-06 05:09 44.86509 -99.31479 35110 ft 494 kts 98°
2026-05-06 05:10 44.85545 -99.21889 35110 ft 494 kts 99°
2026-05-06 05:10 44.84572 -99.12286 35106 ft 495 kts 99°
2026-05-06 05:11 44.83601 -99.02691 35104 ft 495 kts 99°
2026-05-06 05:11 44.82611 -98.93087 35102 ft 495 kts 99°
2026-05-06 05:12 44.81611 -98.83477 35102 ft 496 kts 99°
2026-05-06 05:12 44.80611 -98.73859 35098 ft 496 kts 99°
2026-05-06 05:13 44.79599 -98.64247 35100 ft 497 kts 99°
2026-05-06 05:13 44.78575 -98.54631 35097 ft 497 kts 99°
2026-05-06 05:14 44.77544 -98.45068 35100 ft 497 kts 99°
2026-05-06 05:14 44.76499 -98.35384 35091 ft 497 kts 99°
2026-05-06 05:15 44.75461 -98.25826 35094 ft 498 kts 100°
2026-05-06 05:15 44.74399 -98.16199 35094 ft 498 kts 100°
2026-05-06 05:16 44.73337 -98.06558 35088 ft 499 kts 100°
2026-05-06 05:16 44.72269 -97.96916 35087 ft 499 kts 100°
2026-05-06 05:17 44.71178 -97.87233 35106 ft 506 kts 99°
2026-05-06 05:17 44.70053 -97.77341 35106 ft 518 kts 99°
2026-05-06 05:18 44.68896 -97.67256 35100 ft 525 kts 100°
2026-05-06 05:18 44.67733 -97.57128 35170 ft 522 kts 101°
2026-05-06 05:18 44.67161 -97.52142 35071 ft 510 kts 101°
2026-05-06 05:19 44.66601 -97.47279 35097 ft 503 kts 101°
2026-05-06 05:19 44.65470 -97.37592 35092 ft 503 kts 101°
2026-05-06 05:20 44.64323 -97.27888 35093 ft 503 kts 101°
2026-05-06 05:20 44.63165 -97.18190 35094 ft 504 kts 102°
2026-05-06 05:21 44.62008 -97.08563 35098 ft 504 kts 102°
2026-05-06 05:21 44.60833 -96.98853 35101 ft 504 kts 102°
2026-05-06 05:22 44.59658 -96.89152 35089 ft 504 kts 102°
2026-05-06 05:22 44.58484 -96.79458 35093 ft 505 kts 102°
2026-05-06 05:23 44.57291 -96.69754 35088 ft 505 kts 102°
2026-05-06 05:23 44.55474 -96.55204 35088 ft 505 kts 102°
2026-05-06 05:24 44.54257 -96.45491 35082 ft 506 kts 102°
2026-05-06 05:24 44.53032 -96.35780 35077 ft 506 kts 102°
2026-05-06 05:25 44.52006 -96.27718 35076 ft 506 kts 103°
2026-05-06 05:25 44.50754 -96.17995 35076 ft 506 kts 103°
2026-05-06 05:26 44.49582 -96.08262 35081 ft 508 kts 97°
2026-05-06 05:26 44.49195 -95.98361 35081 ft 509 kts 95°
2026-05-06 05:27 44.48816 -95.88457 35073 ft 509 kts 95°
2026-05-06 05:27 44.48401 -95.78553 35064 ft 509 kts 95°
2026-05-06 05:28 44.47971 -95.68645 35059 ft 510 kts 95°
2026-05-06 05:28 44.47549 -95.58729 35002 ft 512 kts 95°
2026-05-06 05:29 44.47340 -95.53750 34644 ft 511 kts 95°
2026-05-06 05:29 44.47132 -95.48845 34217 ft 511 kts 95°
2026-05-06 05:29 44.46916 -95.43885 33699 ft 511 kts 96°
2026-05-06 05:29 44.46694 -95.38902 33159 ft 515 kts 96°
2026-05-06 05:30 44.46458 -95.33815 32627 ft 519 kts 97°
2026-05-06 05:30 44.46227 -95.28813 31988 ft 525 kts 97°
2026-05-06 05:30 44.46010 -95.23686 31310 ft 531 kts 94°
2026-05-06 05:30 44.46189 -95.18501 30636 ft 537 kts 84°
2026-05-06 05:31 44.46941 -95.13371 30055 ft 540 kts 73°
2026-05-06 05:31 44.48103 -95.08376 29400 ft 538 kts 71°
2026-05-06 05:31 44.49274 -95.03412 28837 ft 534 kts 71°
2026-05-06 05:31 44.50409 -94.98527 28348 ft 525 kts 71°
2026-05-06 05:32 44.51523 -94.93676 27796 ft 517 kts 72°
2026-05-06 05:32 44.52615 -94.88921 27258 ft 509 kts 71°
2026-05-06 05:32 44.53692 -94.84237 26676 ft 502 kts 71°
2026-05-06 05:32 44.54754 -94.79613 26156 ft 494 kts 71°
2026-05-06 05:33 44.55802 -94.75058 25594 ft 487 kts 71°
2026-05-06 05:33 44.56832 -94.70575 25103 ft 479 kts 71°
2026-05-06 05:33 44.57844 -94.66156 24566 ft 472 kts 72°
2026-05-06 05:33 44.58839 -94.61811 24091 ft 464 kts 72°
2026-05-06 05:34 44.59816 -94.57530 23621 ft 456 kts 72°
2026-05-06 05:34 44.60770 -94.53333 23039 ft 448 kts 72°
2026-05-06 05:34 44.61708 -94.49207 22516 ft 439 kts 71°
2026-05-06 05:34 44.62629 -94.45155 22090 ft 432 kts 71°
2026-05-06 05:35 44.63534 -94.41159 21655 ft 427 kts 71°
2026-05-06 05:35 44.64429 -94.37194 21218 ft 424 kts 71°
2026-05-06 05:35 44.65312 -94.33265 20770 ft 420 kts 71°
2026-05-06 05:35 44.66185 -94.29372 20316 ft 416 kts 71°
2026-05-06 05:36 44.67050 -94.25520 19873 ft 412 kts 71°
2026-05-06 05:36 44.67909 -94.21701 19421 ft 408 kts 71°
2026-05-06 05:36 44.68759 -94.17931 18971 ft 401 kts 71°
2026-05-06 05:36 44.69591 -94.14234 18522 ft 393 kts 71°
2026-05-06 05:37 44.70405 -94.10610 18060 ft 386 kts 71°
2026-05-06 05:37 44.71204 -94.07065 17627 ft 383 kts 71°
2026-05-06 05:37 44.72002 -94.03515 17194 ft 381 kts 71°
2026-05-06 05:37 44.72801 -93.99956 16776 ft 379 kts 71°
2026-05-06 05:38 44.73590 -93.96431 16351 ft 376 kts 71°
2026-05-06 05:38 44.74368 -93.92931 15935 ft 374 kts 71°
2026-05-06 05:38 44.75141 -93.89461 15520 ft 371 kts 71°
2026-05-06 05:38 44.75912 -93.86013 15109 ft 368 kts 71°
2026-05-06 05:39 44.76679 -93.82592 14727 ft 364 kts 71°
2026-05-06 05:39 44.77426 -93.79243 14595 ft 353 kts 71°
2026-05-06 05:39 44.78142 -93.76001 14453 ft 342 kts 71°
2026-05-06 05:39 44.78837 -93.72854 14300 ft 332 kts 71°
2026-05-06 05:40 44.79519 -93.69773 13944 ft 330 kts 71°
2026-05-06 05:40 44.80201 -93.66701 13523 ft 326 kts 71°
2026-05-06 05:40 44.80874 -93.63675 13060 ft 322 kts 71°
2026-05-06 05:40 44.81539 -93.60673 12577 ft 320 kts 71°
2026-05-06 05:41 44.82194 -93.57703 12139 ft 316 kts 71°
2026-05-06 05:41 44.82844 -93.54749 11676 ft 314 kts 71°
2026-05-06 05:41 44.83484 -93.51824 11225 ft 311 kts 71°
2026-05-06 05:41 44.84118 -93.48919 10779 ft 309 kts 71°
2026-05-06 05:42 44.84641 -93.46003 10342 ft 307 kts 82°
2026-05-06 05:42 44.84631 -93.43010 9904 ft 306 kts 98°
2026-05-06 05:42 44.84050 -93.40149 9421 ft 304 kts 115°
2026-05-06 05:42 44.83011 -93.37563 8839 ft 304 kts 122°
2026-05-06 05:43 44.81912 -93.35045 8479 ft 300 kts 122°
2026-05-06 05:43 44.80850 -93.32614 8321 ft 290 kts 122°
2026-05-06 05:43 44.79812 -93.30234 8189 ft 279 kts 121°
2026-05-06 05:43 44.78816 -93.27947 8071 ft 268 kts 121°
2026-05-06 05:44 44.77864 -93.25761 8020 ft 255 kts 121°
2026-05-06 05:44 44.76943 -93.23649 8008 ft 252 kts 121°
2026-05-06 05:44 44.76029 -93.21553 8009 ft 251 kts 121°
2026-05-06 05:44 44.75119 -93.19458 7966 ft 251 kts 121°
2026-05-06 05:45 44.74231 -93.17364 7648 ft 249 kts 120°
2026-05-06 05:45 44.73350 -93.15271 7286 ft 248 kts 120°
2026-05-06 05:45 44.72475 -93.13190 6938 ft 246 kts 120°
2026-05-06 05:45 44.71672 -93.11074 6603 ft 244 kts 107°
2026-05-06 05:46 44.71458 -93.08775 6207 ft 234 kts 80°
2026-05-06 05:46 44.71948 -93.06660 5760 ft 224 kts 54°
2026-05-06 05:46 44.72968 -93.05084 5334 ft 214 kts 30°
2026-05-06 05:46 44.74243 -93.04046 4906 ft 211 kts 25°
2026-05-06 05:47 44.75522 -93.03048 4563 ft 209 kts 25°
2026-05-06 05:47 44.76791 -93.02069 4249 ft 207 kts 22°
2026-05-06 05:47 44.78157 -93.01718 4029 ft 199 kts 352°
2026-05-06 05:47 44.79435 -93.02400 3851 ft 198 kts 323°
2026-05-06 05:48 44.80310 -93.03893 3619 ft 200 kts 303°
2026-05-06 05:48 44.81029 -93.05560 3358 ft 196 kts 303°
2026-05-06 05:48 44.81713 -93.07141 3085 ft 186 kts 304°
2026-05-06 05:48 44.82371 -93.08656 2831 ft 176 kts 304°
2026-05-06 05:49 44.82975 -93.10046 2598 ft 158 kts 305°
2026-05-06 05:49 44.83518 -93.11296 2390 ft 145 kts 305°
2026-05-06 05:49 44.84031 -93.12474 2189 ft 138 kts 306°
2026-05-06 05:49 44.84526 -93.13610 1993 ft 135 kts 306°
2026-05-06 05:50 44.85016 -93.14736 1778 ft 134 kts 305°
2026-05-06 05:50 44.85509 -93.15869 1573 ft 136 kts 303°
2026-05-06 05:50 44.86006 -93.17015 1372 ft 138 kts 303°
2026-05-06 05:50 44.86508 -93.18171 1188 ft 138 kts 302°
2026-05-06 05:51 44.87006 -93.19318 1004 ft 137 kts 302°
2026-05-06 05:51 44.87498 -93.20460 839 ft 135 kts 302°
2026-05-06 05:51 44.87926 -93.21442 833 ft 91 kts 301°
2026-05-06 05:51 44.88134 -93.21923 831 ft 26 kts 303°
2026-05-06 05:52 44.88224 -93.22008 836 ft 13 kts
2026-05-06 05:52 44.88260 -93.21920 836 ft 11 kts 108°
2026-05-06 05:52 44.88212 -93.21804 838 ft 19 kts 121°
2026-05-06 05:52 44.88128 -93.21611 831 ft 25 kts 121°
2026-05-06 05:53 44.88037 -93.21400 833 ft 25 kts 121°
2026-05-06 05:53 44.87948 -93.21196 832 ft 24 kts 121°
2026-05-06 05:53 44.87865 -93.21005 831 ft 22 kts 121°
2026-05-06 05:53 44.87786 -93.20821 829 ft 19 kts 122°
2026-05-06 05:54 44.87737 -93.20688 832 ft 14 kts 96°
2026-05-06 05:54 44.87789 -93.20641 833 ft 10 kts 315°
2026-05-06 05:54 44.87828 -93.20706 833 ft 6 kts 334°
2026-05-06 05:54 44.87860 -93.20691 833 ft 5 kts 33°
2026-05-06 05:55 44.87884 -93.20668 831 ft 3 kts 32°
2026-05-06 05:55 44.87891 -93.20663 833 ft 0 kts 32°